AirNav   Duncan Aviation - Near you to keep you flying
 
 1161 users online  

2NY0 Catskill Valley Airpark
South Cairo, New York, USA

GOING TO SOUTH CAIRO?


FAA INFORMATION EFFECTIVE 11 AUGUST 2022

Location

FAA Identifier: 2NY0
Lat/Long: 42-16-50.3110N 073-57-10.4710W
42-16.838517N 073-57.174517W
42.2806419,-73.9529086
(estimated)
Elevation: 190 ft. / 58 m (estimated)
Variation: 14W (1985)
From city: 3 miles SE of SOUTH CAIRO, NY
Time zone: UTC -4 (UTC -5 during Standard Time)
Zip code: 12451

Airport Operations

Airport use: Private use. Permission required prior to landing
Activation date: 06/1962
Control tower: no
ARTCC: BOSTON CENTER
FSS: BURLINGTON FLIGHT SERVICE STATION
Attendance: UNATNDD
Wind indicator: no
Segmented circle: no

Airport Communications

WX AWOS-3 at 1B1 (11 nm E): 133.525 (518-828-2577)

Nearby radio navigation aids

VOR radial/distance  VOR name  Freq  Var
ALBr206/28.8ALBANY VORTAC115.3013W
PWLr345/34.4PAWLING VOR/DME114.3012W
IGNr003/37.4KINGSTON VOR/DME117.6012W

 
NDB name  Hdg/Dist  Freq  Var  ID
PHILMONT292/10.327213WPFH .--. ..-. ....
HUNTER195/34.435614WHEU .... . ..-

Airport Services

Runway Information

Runway 2/20

Dimensions: 1475 x 50 ft. / 450 x 15 m
Surface: turf
RUNWAY 2  RUNWAY 20
Traffic pattern: leftleft

Airport Ownership and Management from official FAA records

Ownership: Privately-owned
Owner: CLEMENTS J HOOVLER JR
BOX 44
SOUTH CAIRO, NY 12482
Phone 518-622-3307
Manager: C J HOOVLER JR
BOX 44
SOUTH CAIRO, NY 12482
Phone 518-622-3307

Airport Operational Statistics

Aircraft based on the field: 2
Single engine airplanes: 2
    

Additional Remarks

FOR CD CTC ALBANY APCH AT 518-862-2299.

Instrument Procedures

There are no published instrument procedures at 2NY0.

Some nearby airports with instrument procedures:

1B1 - Columbia County Airport (11 nm E)
4B0 - South Albany Airport (18 nm N)
20N - Kingston-Ulster Airport (18 nm S)
KGBR - Walter J Koladza Airport (25 nm E)
KALB - Albany International Airport (29 nm N)
 
Loc | Ops | Rwys | IFR | FBO | Links
Com | Nav | Svcs | Stats | Notes
Area around 2NY0 (Catskill Valley Airpark)
 
Road maps at: MapQuest Bing Google
 
Aerial photo
No photo
 
Sectional chart

 
Airport distance calculator
Flying to Catskill Valley Airpark? Find the distance to fly.

From to 2NY0

Sunrise and sunset
Times for 13-Aug-2022
 Local
(UTC-4)
 Zulu
(UTC)
Morning civil twilight05:3109:31
Sunrise06:0210:02
Sunset19:5923:59
Evening civil twilight20:3000:30

Current date and time
Zulu (UTC)  13-Aug-2022 21:04:42
Local (UTC-4)  13-Aug-2022 17:04:42
 
METAR
KALB 
29nm N 
132051Z 05006KT 10SM SCT080 25/10 A3007 RMK AO2 SLP180 T02500100 58015
KPSF 
31nm E 
132054Z AUTO VRB03KT 10SM BKN070 23/10 A3008 RMK AO2 SLP167 T02280100 56011
KSCH 
34nm N 
132045Z 35003KT 15SM SCT065 24/08 A3007
TAF
KALB 
29nm N 
131721Z 1318/1418 36006KT P6SM SCT060 FM140200 VRB03KT P6SM FEW050
KPSF 
31nm E 
131721Z 1318/1418 34006KT P6SM BKN050 FM140200 VRB02KT P6SM FEW050 TEMPO 1408/1411 5SM BR
NOTAMs
Click for the latest NOTAMs
NOTAMs are issued by the DoD/FAA and will open in a separate window not controlled by AirNav.

 

 
 

Would you like to see your business listed on this page?

 If your business provides an interesting product or service to pilots, flight crews, aircraft, or users of the Catskill Valley Airpark, you should consider listing it here.  To start the listing process, click on the button below
 
Add a business
 

Other Pages about Catskill Valley Airpark

Update a link
 
Copyright © AirNav, LLC. All rights reserved. Privacy Policy  Contact